This is the latest recevied weather packets stored in our database for station/object DM2KB-13. If no packets are shown the sender has not sent any weather packets the latest 1 day(s).
| Time | Temp. | Humidity | Pressure | Rain* | Wind** | Luminosity | Snow |
|---|---|---|---|---|---|---|---|
| 1777970992 | 11.11° C | 98% | 1009 hPa | 0 mm | 0.45 m/s, 1° | 102 W/m² | - |
| 1777970692 | 11.11° C | 98% | 1009.1 hPa | 0 mm | 0.89 m/s, 19° | 91 W/m² | - |
| 1777970391 | 11.11° C | 98% | 1009.1 hPa | 0 mm | 0.89 m/s, 23° | 67 W/m² | - |
| 1777970091 | 11.11° C | 98% | 1009.1 hPa | 0 mm | 0.89 m/s, 34° | 62 W/m² | - |
| 1777969791 | 11.11° C | 98% | 1009.1 hPa | 0 mm | 0.89 m/s, 11° | 53 W/m² | - |
| 1777969491 | 11.11° C | 98% | 1009 hPa | 0 mm | 0.89 m/s, 42° | 53 W/m² | - |
| 1777969190 | 11.11° C | 98% | 1009 hPa | 0 mm | 1.34 m/s, 29° | 51 W/m² | - |
| 1777968890 | 11.11° C | 98% | 1008.9 hPa | 0 mm | 1.34 m/s, 21° | 54 W/m² | - |
| 1777968590 | 11.11° C | 98% | 1008.9 hPa | 0 mm | 0.89 m/s, 11° | 58 W/m² | - |
| 1777968289 | 11.11° C | 98% | 1008.9 hPa | 0.25 mm | 0.89 m/s, 32° | 56 W/m² | - |
| 1777967989 | 11.11° C | 98% | 1009 hPa | 0.76 mm | 0.89 m/s, 34° | 51 W/m² | - |
| 1777967689 | 11.67° C | 98% | 1009 hPa | 1.02 mm | 1.34 m/s, 17° | 54 W/m² | - |
| 1777967389 | 11.67° C | 98% | 1009 hPa | 1.52 mm | 1.34 m/s, 24° | 58 W/m² | - |
| 1777967088 | 11.67° C | 98% | 1009 hPa | 2.03 mm | 0.89 m/s, 39° | 74 W/m² | - |
| 1777966788 | 11.67° C | 98% | 1009 hPa | 2.79 mm | 0.89 m/s, 42° | 74 W/m² | - |
| 1777966488 | 11.67° C | 98% | 1009 hPa | 3.05 mm | 1.34 m/s, 30° | 65 W/m² | - |
| 1777966188 | 11.67° C | 98% | 1009.1 hPa | 3.3 mm | 1.34 m/s, 32° | 65 W/m² | - |
| 1777965887 | 11.67° C | 98% | 1009.1 hPa | 3.81 mm | 1.34 m/s, 31° | 53 W/m² | - |
| 1777965587 | 12.22° C | 98% | 1009.1 hPa | 4.32 mm | 0.89 m/s, 15° | 54 W/m² | - |
| 1777965287 | 12.22° C | 98% | 1009.1 hPa | 5.33 mm | 0.89 m/s, 27° | 33 W/m² | - |
| 1777964986 | 11.67° C | 98% | 1009.1 hPa | 6.1 mm | 0.89 m/s, 29° | 40 W/m² | - |
| 1777964686 | 12.22° C | 98% | 1009.1 hPa | 6.1 mm | 0.89 m/s, 358° | 40 W/m² | - |
| 1777964386 | 11.67° C | 97% | 1009.1 hPa | 6.1 mm | 0.89 m/s, 357° | 42 W/m² | - |
| 1777964085 | 12.22° C | 98% | 1009.1 hPa | 5.84 mm | 0.89 m/s, 11° | 28 W/m² | - |
| 1777963785 | 12.22° C | 98% | 1009.1 hPa | 5.59 mm | 0.89 m/s, 42° | 18 W/m² | - |
* Rain latest hour (hover to see other rain measurements)
** Current wind speed in m/s (hover to see current wind gust speed)